Location: Vihti�l�
(61.3833°N, 23.0667°E)
Time: 04:22:52
(UTC+00:00)

CZ-4B R/B - Pass Details

Date: 29 November 2020
Orbit: 485 x 652 km, 97.9° (Epoch: 22 January)

Event Time Altitude Azimuth Distance (km) Brightness Sun altitude
Rises 05:04:42 0° 16° (NNE) 2,988 6.5 -13.2°
Reaches altitude 10° 05:07:00 10° 10° (N) 2,078 5.6 -13.0°
Maximum altitude 05:11:18 42° 300° (WNW) 934 3.5 -12.5°
Drops below altitude 10° 05:15:32 10° 230° (SW) 2,049 5.5 -12.0°
Sets 05:17:47 0° 223° (SW) 2,942 6.3 -11.8°
